sat.trackr.live / text

‹ back to catalog

ONEWEB-0475

NORAD 51655 · 2022-012AK

PAYLOAD ACTIVE UNKNOWN

§ Identity

Operator
Country
UK
Launch date
2022-02-10
Launch site
FRGUI
Launch vehicle
Mass (kg)
RCS (m²)

Purposes: comms

External: N2YO · Heavens-Above · Gunter

§ Orbital elements

Epoch: 2026-05-25T03:18:21.593088Z

Period
109.29 min
Inclination
87.9153°
Eccentricity
0.0002153
Mean motion
13.17648992 rev/d
Perigee alt
1,192.1 km
Apogee alt
1,195.3 km
Semi-major
7,571.9 km
B*
1.5432e-4
RAAN
10.4565°
Arg perigee
68.3097°
Mean anomaly
291.8263°
Rev number
21,065

§ Raw data

ONEWEB-04751 51655U 22012AK  26145.13774992  .00000073  00000+0  15432-3 0  99962 51655  87.9153  10.4565 0002153  68.3097 291.8263 13.17648992210657

JSON: /api/v1/satellites/51655 · /tle

For live sub-satellite position, see the globe view (requires WebGL).

§ Visibility from observer

Set your observer location to see the next 7 days of passes ≥ 10°. The values pass through the URL so the page stays shareable.

No JS? Fill the form by hand. The geolocation button needs JavaScript.